TULLARI Weather Reports


Display with metric or nautical units.
time (UTC)temp
F
wind
direction
speed
MPH
gust
MPH
rain 1hr
in
rain 24hr
in
rain mn
in
humidity
%
barometer
mb
20260503070713 48 331 5.0 8.0 0.00 0.00 0.00 80 1008.0
20260503054713 44 306 9.0 11.0 0.00 0.00 0.00 92 1007.5
20260503052713 44 307 9.0 10.0 0.00 0.00 0.00 93 1007.1
20260503050713 44 291 10.0 12.0 0.00 0.00 0.00 94 1007.1
20260503044713 44 295 9.0 10.0 0.00 0.00 0.00 93 1007.0
20260503042712 43 256 9.0 12.0 0.00 0.00 0.00 96 1006.8
20260503040712 43 261 6.0 7.0 0.00 0.00 0.00 95 1006.5
20260503034713 43 308 10.0 11.0 0.00 0.00 0.00 95 1006.3
20260503032713 42 271 12.0 13.0 0.00 0.00 0.00 96 1006.2
20260503030713 42 248 7.0 8.0 0.00 0.00 0.00 96 1005.9
20260503024714 42 260 7.0 9.0 0.00 0.00 0.00 96 1005.9
20260503022712 42 254 9.0 11.0 0.00 0.00 0.00 95 1005.9
20260503020713 42 271 10.0 13.0 0.00 0.00 0.00 94 1005.8
20260503014713 42 233 14.0 15.0 0.00 0.00 0.00 93 1005.8
20260503012712 42 236 15.0 17.0 0.00 0.00 0.00 94 1005.8
20260503010713 42 226 13.0 16.0 0.00 0.00 0.00 93 1006.0
20260503004713 42 228 12.0 14.0 0.00 0.00 0.00 94 1006.0
20260503002713 42 223 11.0 14.0 0.00 0.00 0.00 93 1006.0
20260503000713 42 236 11.0 13.0 0.00 0.00 0.00 94 1006.2
20260502234713 42 236 9.0 14.0 0.00 0.00 0.00 93 1006.3
20260502232712 43 227 16.0 22.0 0.00 0.00 0.00 91 1006.6
20260502230712 44 223 20.0 25.0 0.00 0.00 0.00 90 1006.4
20260502224713 44 223 19.0 23.0 0.00 0.00 0.00 89 1006.7
20260502222713 43 230 17.0 21.0 0.00 0.00 0.00 89 1007.0
20260502220713 44 226 21.0 25.0 0.00 0.00 0.00 88 1007.1
20260502214712 44 220 20.0 24.0 0.00 0.00 0.00 87 1007.1
20260502212711 44 223 19.0 24.0 0.00 0.00 0.00 87 1007.3
20260502210712 44 223 20.0 25.0 0.00 0.00 0.00 85 1007.5
20260502204712 45 222 22.0 26.0 0.00 0.00 0.00 84 1007.6
20260502202711 45 222 23.0 28.0 0.00 0.00 0.00 83 1007.8
20260502200712 45 218 25.0 29.0 0.00 0.00 0.00 84 1007.9
20260502194711 44 213 25.0 28.0 0.00 0.00 0.00 86 1008.1
20260502192712 44 213 23.0 27.0 0.00 0.00 0.00 87 1008.3
20260502190711 44 213 23.0 29.0 0.00 0.00 0.00 86 1008.4
20260502184711 44 213 22.0 25.0 0.00 0.00 0.00 88 1008.7
20260502182712 44 214 20.0 23.0 0.00 0.00 0.00 88 1008.8
20260502180711 44 218 22.0 25.0 0.00 0.00 0.00 85 1008.9
20260502162710 46 228 15.0 17.0 0.00 0.00 0.00 79 1009.9
20260502160710 46 232 15.0 18.0 0.00 0.00 0.00 81 1010.3
20260502150711 47 242 16.0 19.0 0.00 0.00 0.00 79 1011.0
20260502130710 48 247 22.0 24.0 0.00 0.00 0.00 77 1011.6
20260502122710 48 253 19.0 21.0 0.00 0.00 0.00 76 1011.9
20260502120710 48 251 19.0 22.0 0.00 0.00 0.00 76 1012.0
20260502114710 48 245 19.0 22.0 0.00 0.00 0.00 75 1012.0
20260502112709 49 244 16.0 17.0 0.00 0.00 0.00 73 1012.3
20260502110709 49 247 17.0 23.0 0.00 0.00 0.00 74 1012.3
20260502104709 47 245 21.0 23.0 0.00 0.00 0.00 77 1012.2
20260502102709 47 245 23.0 25.0 0.00 0.00 0.00 78 1012.1
20260502100709 47 244 21.0 24.0 0.00 0.00 0.00 79 1012.1
20260502090709 47 236 19.0 21.0 0.00 0.00 0.00 76 1012.4